#timestamp,LO_Frequency,Hit,StdDev 
1621087215.8,286046999.4,N
1621087235.6,286047000.7,N
1621087255.5,286047000.0,N
1621087275.3,286047002.7,N
1621087295.1,286047000.3,N
1621087315.9,286047002.2,N
1621087335.7,286047002.2,N
1621087355.5,286047004.0,Y
1621087375.4,286047002.3,P
1621087395.2,286047000.6,N
1621087415.1,286046998.9,N
1621087416.0,286046998.9,N
1621087435.8,286046998.5,N
1621087455.6,286047000.0,N
1621087475.5,286047000.6,N
1621087495.3,286047002.0,N
1621087515.1,286047004.2,Y
1621087535.9,286047003.1,P
1621087555.7,286047004.1,N
1621087575.6,286047002.3,N
1621087595.4,286047002.9,N
1621087615.2,286047006.0,Y
1621087635.1,286047002.6,P
1621087636.0,286047002.6,P
1621087655.8,286047000.3,P
1621087675.7,286046998.4,N
1621087695.5,286046998.4,N
1621087715.3,286046998.9,N
1621087735.2,286047000.9,N
1621087755.9,286047002.7,N
1621087775.7,286047002.1,N
1621087795.6,286047000.7,N
1621087815.4,286046999.9,N
1621087835.3,286047002.1,N
1621087855.1,286047001.9,N
1621087856.0,286047001.9,N
1621087875.8,286046999.7,N
1621087895.7,286047000.3,N
1621087915.5,286046999.3,N
1621087935.3,286046997.5,N
1621087955.2,286046999.1,N
1621087975.0,286046999.0,N
1621087975.9,286046999.0,N
1621087995.8,286046996.5,N
1621088015.6,286046998.7,N
1621088035.4,286046999.1,N
1621088055.3,286046999.4,N
1621088075.1,286047002.2,N
1621088095.8,286047004.3,N
1621088115.7,286047002.2,N
1621088135.5,286047003.8,N
1621088155.4,286047002.3,N
1621088175.2,286047004.4,N
1621088195.0,286047004.2,N
1621088195.9,286047004.2,N
1621088215.8,286046999.7,N
1621088235.6,286046998.4,N
1621088255.4,286046998.5,N
1621088275.3,286046998.6,N
1621088295.1,286047002.5,N
1621088315.9,286047004.3,N
1621088335.7,286047005.5,N
1621088355.5,286047005.1,N
1621088375.4,286047003.3,N
1621088395.2,286047005.9,N
1621088415.0,286047005.1,N
1621088415.9,286047005.1,N
1621088435.8,286047004.6,N
1621088455.6,286047004.7,N
1621088475.5,286047003.8,N
1621088495.3,286047003.2,N
1621088515.1,286047004.0,N
1621088535.9,286047004.1,N
1621088555.7,286047004.0,N
1621088575.5,286047003.7,N
1621088595.4,286047005.7,N
1621088615.2,286047004.1,N
1621088635.1,286047004.4,N
1621088636.0,286047004.4,N
1621088655.8,286047003.2,N
1621088675.6,286047004.8,N
1621088695.5,286047003.4,N
1621088715.3,286047003.4,N
1621088735.1,286047003.6,N
1621088755.9,286047005.6,N
1621088775.7,286047004.9,N
1621088795.6,286047005.8,N
1621088815.4,286047003.1,N
1621088835.2,286047007.3,Y
1621088855.1,286047002.5,P
1621088856.0,286047002.5,P
1621088875.8,286047000.8,N
1621088895.7,286046998.7,N
1621088915.5,286047000.6,N
1621088935.3,286046999.8,N
1621088955.2,286047001.7,N
1621088975.0,286047002.1,N
1621088975.9,286047002.1,N
1621088995.7,286047002.6,N
1621089015.6,286046998.2,N
1621089035.4,286046999.6,N
1621089055.3,286046998.3,N
1621089075.1,286046998.9,N
1621089125.9,286046998.5,E
1621089135.8,286047000.1,N
1621089155.6,286047002.3,P
1621089175.5,286047004.4,P
1621089195.3,286047000.7,N
1621089215.1,286046997.6,N
1621089235.9,286046997.1,N
1621089255.7,286046999.2,N
1621089275.6,286046998.6,N
1621089295.4,286046998.7,N
1621089315.2,286046999.2,N
1621089335.1,286047000.4,N
1621089336.0,286047000.4,N
1621089355.8,286046998.9,N
1621089375.6,286046997.3,N
1621089395.5,286046997.4,N
1621089415.3,286046999.1,N
1621089435.2,286047000.0,N
1621089455.0,286047000.3,N
1621089455.9,286047000.3,N
1621089475.7,286047002.2,N
1621089495.6,286046998.1,N
1621089515.4,286046997.5,N
1621089535.3,286046996.8,N
1621089555.1,286046996.5,N
1621089575.8,286046998.8,N
1621089595.7,286047000.8,N
1621089615.5,286046998.1,N
1621089635.4,286047000.2,N
1621089655.2,286047000.8,N
1621089675.0,286047001.8,N
1621089675.9,286047001.8,N
1621089695.8,286047000.1,N
1621089715.6,286047000.2,N
1621089735.4,286047001.0,N
1621089755.3,286046999.2,N
1621089775.1,286046999.0,N
1621089795.9,286047001.0,N
1621089815.7,286047000.1,N
1621089835.5,286047001.0,N
1621089855.4,286046999.9,N
1621089875.2,286047004.1,N
1621089895.1,286047005.4,Y
1621089896.0,286047005.4,P
1621089915.8,286047004.1,N
1621089935.6,286047002.0,N
1621089955.5,286046997.5,N
1621089975.3,286046996.8,N
1621089995.1,286046999.4,N
1621090015.9,286046997.3,N
1621090035.7,286046996.8,N
1621090055.6,286046997.7,N
1621090075.4,286046998.8,N
1621090095.2,286047001.0,N
1621090115.1,286046998.8,N
1621090116.0,286046998.8,N
1621090135.8,286047000.9,N
1621090155.6,286047002.4,N
1621090175.5,286047000.1,N
1621090195.3,286047000.5,N
1621090215.2,286047000.6,N
1621090235.9,286046998.3,N
1621090255.7,286047000.4,N
1621090275.6,286047001.0,N
1621090295.4,286046998.6,N
1621090315.2,286047000.6,N
1621090335.1,286046997.4,N
1621090336.0,286046997.4,N
1621090355.8,286046999.2,N
1621090375.7,286047000.6,N
1621090395.5,286047002.7,N
1621090415.3,286047001.1,N
1621090435.2,286047002.0,N
1621090455.0,286047001.5,N
1621090455.9,286047001.5,N
1621090475.7,286047002.6,N
1621090495.6,286047002.3,N
1621090515.4,286047002.2,N
1621090535.3,286047001.8,N
1621090555.1,286047002.7,N
1621090556.0,286047002.7,N
1621090575.8,286047002.6,N
1621090595.7,286047001.0,N
1621090615.5,286047002.4,N
1621090635.3,286047002.9,N
1621090655.2,286047001.4,N
1621090675.0,286046999.7,N
1621090675.9,286046999.7,N
1621090695.8,286047003.5,N
1621090715.6,286047001.5,N
1621090735.4,286047002.0,N
1621090755.3,286047002.4,N
1621090775.1,286047002.8,N
1621090795.9,286047001.2,N
